Location: Newark
(43.9494°N, 6.8108°E)
Time: 02:32:58
(UTC+00:00)

A-11 Canister half - Pass Details

Date: 26 October 2019
Orbit: 1514 x 1686 km, 47.2° (Epoch: 18 November)

Event Time Altitude Azimuth Distance (km) Brightness Sun altitude
Rises 21:01:15 0° 177° (S) 4,925 - -47.3°
Reaches altitude 10° 21:06:05 10° 158° (SSE) 3,935 - -48.0°
Maximum altitude 21:11:37 16° 124° (SE) 3,439 - -48.7°
Drops below altitude 10° 21:17:05 10° 90° (E) 3,903 - -49.5°
Sets 21:21:47 0° 71° (ENE) 4,866 - -50.1°
